SCP
0 0 0 0 0 0 0 0 0 0 0 0 0 0 0 0 0 0 0 0 0 0 0 0 0 0 0 0 0 0 0 0 0 0 0 0 0 0 0 0 0 0 0 0
0 0 0 0 0 0 0 0 0 0 0 0 0 0 0 0 0 0 0 0 0 0 0 0 0 0 0 0 0 0 0 0 0 0 0 0 0 0 0 0 0 0 0 0
0 0 0 0 0 0 0 0 0 0 0 0 0 0 0 0 0 0 0 0 0 0 0 0 0 0 0 0 0 0 0 0 0 0 0 0 0 0 0 0 0 0 0 0
0 0 0 0 0 0 0 0 0 0 0 0 0 0 0 0 0 0 0 0 0 0 0 0 0 0 0 0 0 0 0 0 0 0 0 0 0 0 0 0 0 0 0 0
0 0 0 0 0 0 0 0 0 0 0 0 0 0 0 0 0 0 0 0 0 0 0 0 0 0 0 0 0 0 0 0 0 0 0 0 0 0 0 0 0 0 0 0
0 0 0 0 0 0 0 0 0 0 0 0 0 0 0 0 0 0 0 0 0 0 0 0 0 0 0 0 0 0 0 0 0 0 0 0 0 0 0 0 0 0 0 0
0 0 0 0 0 0 0 0 0 0 0 0 0 0 0 0 0 0 0 0 0 0 0 0 0 0 0 0 0 0 0 0 0 0 0 0 0 0 0 0 0 0 0 0
0 0 0 0 0 0 0 0 0 0 0 0 0 0 0 0 0 0 0 0 0 0 0 0 0 0 0 0 0 0 0 0 0 0 0 0 0 0 0 0 0 0 0 0
0 0 0 0 0 0 0 0 0 0 0 0 0 0 0 0 0 0 0 0 0 0 0 0 0 0 0 0 0 0 0 0 0 0 0 0 0 0 0 0 0 0 0 0
0 0 0 0 0 0 0 0 0 0 0 0 0 0 0 0 0 0 0 0 0 0 0 0 0 0 0 0 0 0 0 0 0 0 0 0 0 0 0 0 0 0 0 0
0 0 0 0 0 0 0 0 0 0 0 0 0 0 0 0 0 0 0 0 0 0 0 0 0 0 0 0 0 0 0 0 0 0 0 0 0 0 0 0 0 0 0 0
0 0 0 0 0 0 0 0 0 0 0 0 0 0 0 0 0 0 0 0 0 0 0 0 0 0 0 0 0 0 0 0 0 0 0 0 0 0 0 0 0 0 0 0
0 0 0 0 0 0 0 0 0 0 0 0 0 0 0 0 0 0 0 0 0 0 0 0 0 0 0 0 0 0 0 0 0 0 0 0 0 0 0 0 0 0 0 0
0 0 0 0 0 0 0 0 0 0 0 0 0 0 0 0 0 0 0 0 0 0 0 0 0 0 0 0 0 0 0 0 0 0 0 0 0 0 0 0 0 0 0 0
0 0 0 0 0 0 0 0 0 0 0 0 0 0 0 0 0 0 0 0 0 0 0 0 0 0 0 0 0 0 0 0 0 0 0 0 0 0 0 0 0 0 0 0
0 0 0 0 0 0 0 0 0 0 0 0 0 0 0 0 0 0 0 0 0 0 0 0 0 0 0 0 0 0 0 0 0 0 0 0 0 0 0 0 0 0 0 0
0 0 0 0 0 0 0 0 0 0 0 0 0 0 0 0 0 0 0 0 0 0 0 0 0 0 0 0 0 0 0 0 0 0 0 0 0 0 0 0 0 0 0 0
0 0 0 0 0 0 0 0 0 0 0 0 0 0 0 0 0 0 0 0 0 0 0 0 0 0 0 0 0 0 0 0 0 0 0 0 0 0 0 0 0 0 0 0
0 0 0 0 0 0 0 0 0 0 0 0 0 0 0 0 0 0 0 0 0 0 0 0 0 0 0 0 0 0 0 0 0 0 0 0 0 0 0 0 0 0 0 0
0 0 0 0 0 0 0 0 0 0 0 0 0 0 0 0 0 0 0 0 0 0 0 0 0 0 0 0 0 0 0 0 0 0 0 0 0 0 0 0 0 0 0 0
0 0 0 0 0 0 0 0 0 0 0 0 0 0 0 0 0 0 0 0 0 0 0 0 0 0 0 0 0 0 0 0 0 0 0 0 0 0 0 0 0 0 0 0
0 0 0 0 0 0 0 0 0 0 0 0 0 0 0 0 0 0 0 0 0 0 0 0 0 0 0 0 0 0 0 0 0 0 0 0 0 0 0 0 0 0 0 0
0 0 0 0 0 0 0 0 0 0 0 0 0 0 0 0 0 0 0 0 0 0 0 0 0 0 0 0 0 0 0 0 0 0 0 0 0 0 0 0 0 0 0 0
0 0 0 0 0 0 0 0 0 0 0 0 0 0 0 0 0 0 0 0 0 0 0 0 0 0 0 0 0 0 0 0 0 0 0 0 0 0 0 0 0 0 0 0
0 0 0 0 0 0 0 0 0 0 0 0 0 0 0 0 0 0 0 0 0 0 0 0 0 0 0 0 0 0 0 0 0 0 0 0 0 0 0 0 0 0 0 0
0 0 0 0 0 0 0 0 0 0 0 0 0 0 0 0 0 0 0 0 0 0 0 0 0 0 0 0 0 0 0 0 0 0 0 0 0 0 0 0 0 0 0 0
0 0 0 0 0 0 0 0 0 0 0 0 0 0 0 0 0 0 0 0 0 0 0 0 0 0 0 0 0 0 0 0 0 0 0 0 0 0 0 0 0 0 0 0
Wind_Speed
7 6 4 6 7 5 7 8 7 7 7 7 5 4 2 2 2 2 1 1 1 0 0 1 1 1 2 2 3 4 5 5 5 4 4 5 5 5 5 5 5 5 5 4
5 4 4 6 7 6 7 7 8 7 9 5 3 1 1 1 1 1 2 2 1 0 0 1 1 1 1 2 2 4 4 4 4 4 4 4 5 5 5 5 5 5 5 5
3 4 2 4 5 4 3 3 4 8 8 3 3 2 2 2 2 1 1 2 1 1 0 0 1 2 2 2 2 3 3 3 4 4 4 4 5 6 5 5 5 5 4 4
2 2 3 4 2 2 3 3 1 4 4 2 2 2 2 1 1 0 1 1 1 1 1 2 1 2 2 2 3 3 3 3 3 4 4 4 5 5 5 4 4 4 4 4
1 2 4 4 4 4 2 3 3 5 5 4 2 2 3 4 2 1 1 1 1 1 1 2 2 2 3 3 3 3 3 2 3 3 4 4 4 4 4 4 3 3 3 4
1 1 2 4 7 7 1 3 6 5 5 4 3 1 3 4 4 4 4 3 3 3 3 3 2 2 3 3 3 2 2 2 2 3 4 4 4 3 3 3 3 3 2 2
2 2 3 5 9 4 2 4 7 5 4 3 1 2 2 3 4 4 4 4 4 4 4 3 2 3 4 3 2 1 1 2 2 2 3 3 3 3 3 3 3 3 2 1
1 1 4 7 5 3 3 4 5 5 4 3 3 4 4 4 5 5 5 5 5 5 5 4 4 4 4 3 2 3 3 4 3 3 2 3 4 3 3 4 4 3 2 1
1 1 3 4 3 4 4 4 5 4 4 3 4 4 5 5 5 6 5 5 4 6 6 6 5 5 5 3 3 4 5 4 3 3 3 3 3 3 3 3 3 2 2 1
1 3 5 5 6 7 6 5 5 5 4 4 4 4 5 5 5 5 5 5 5 6 6 6 6 6 5 3 3 5 5 4 3 4 3 3 2 2 2 2 2 2 1 1
2 4 5 6 7 7 7 7 7 6 6 5 5 5 5 5 5 5 5 5 5 5 6 6 5 5 5 4 4 5 4 4 3 3 3 3 3 2 2 1 1 2 2 2
2 3 3 5 6 6 6 7 6 6 7 6 6 5 5 5 5 5 5 5 6 6 6 5 5 5 5 5 5 5 4 3 3 3 3 3 3 3 5 3 3 2 1 0
2 3 3 4 5 5 5 5 6 6 5 5 5 5 5 5 5 6 6 6 6 6 6 6 6 6 5 5 5 4 3 3 2 3 2 2 2 2 2 3 4 4 3 2
4 3 3 4 4 5 5 4 5 5 5 5 4 5 5 5 5 6 6 5 5 6 6 6 6 6 5 4 4 4 4 3 3 2 2 2 1 1 1 1 2 2 3 3
6 4 2 2 4 5 5 5 6 6 5 5 5 5 5 5 5 5 5 5 5 6 6 5 6 5 5 4 4 4 3 2 2 2 2 1 1 1 1 1 1 1 2 3
6 5 4 4 5 5 5 5 5 4 4 4 4 4 4 4 4 4 5 5 5 5 5 5 5 4 4 4 4 3 3 4 3 2 1 1 1 1 0 0 1 1 2 2
4 4 5 5 5 5 5 4 3 3 3 3 3 3 3 4 4 4 5 4 4 4 4 4 4 4 4 3 3 2 2 2 3 2 1 1 1 0 1 1 1 1 2 2
3 2 2 2 2 3 4 4 3 3 3 2 3 3 3 3 3 3 3 4 4 5 5 4 4 4 4 3 2 2 1 1 1 1 1 1 1 1 1 1 1 2 2 3
4 4 4 4 3 2 3 3 3 3 3 3 3 3 2 2 2 2 3 3 4 4 5 4 6 5 4 4 4 2 1 1 1 1 1 2 2 1 1 1 2 2 2 2
5 4 4 4 4 3 3 3 3 3 3 2 2 2 2 2 2 2 3 2 2 2 3 4 4 3 3 3 4 2 2 1 1 1 1 1 1 2 2 2 2 2 2 2
5 5 5 4 4 4 4 3 3 3 3 2 2 2 2 3 2 2 2 2 3 3 3 5 3 3 3 3 4 2 2 2 1 1 2 2 2 2 2 2 2 3 3 3
4 4 4 4 4 4 4 3 3 3 3 3 2 2 2 3 3 2 2 2 3 5 4 2 2 4 4 4 2 1 2 2 1 1 1 2 2 2 2 3 3 3 3 3
3 3 4 4 4 4 4 3 3 3 3 3 3 2 2 3 2 2 3 2 2 5 4 3 5 6 6 3 2 2 2 2 2 2 2 2 2 2 3 3 3 3 3 3
3 3 4 3 3 3 4 4 3 3 3 3 3 3 3 2 2 2 2 5 6 6 4 5 7 7 5 2 1 2 2 2 2 2 2 2 2 2 3 3 3 3 3 4
4 3 3 3 3 3 3 4 4 3 3 2 3 3 2 2 2 3 3 3 6 6 4 5 7 7 3 2 2 2 2 2 3 3 2 2 2 3 3 3 3 3 3 4
3 3 3 3 3 3 3 3 3 3 3 3 3 3 2 2 3 3 3 3 4 6 4 3 3 4 2 2 2 3 3 3 3 3 3 3 3 3 3 3 4 4 4 4
3 3 3 3 3 3 3 3 3 3 3 3 4 4 3 3 3 3 3 3 3 3 3 3 3 3 3 3 3 3 3 3 3 3 3 3 3 3 3 4 4 4 4 4
Wind_Direction
265 276 275 277 274 246 225 222 220 240 250 264 281 283 299 330 341 340 356 53 74 89 85 116 110 117 141 145 147 149 149 153 163 162 151 147 153 156 155 155 156 156 154 157
277 272 268 286 286 261 247 241 238 255 265 277 294 316 343 333 312 306 310 313 333 4 51 141 141 140 126 132 141 143 149 156 152 142 144 151 156 154 152 155 155 151 157 162
281 296 303 286 281 257 247 240 223 242 259 309 315 301 261 237 229 261 292 306 312 327 20 118 133 136 139 138 131 133 138 143 144 142 149 159 153 149 155 160 157 156 161 163
285 359 236 250 301 310 268 252 260 287 304 293 283 302 332 335 177 313 338 356 351 18 40 42 58 81 98 112 120 125 131 136 137 138 145 145 147 154 157 159 160 164 168 172
223 256 283 318 345 343 298 293 347 313 320 335 346 25 10 13 22 18 18 26 27 35 56 62 62 74 94 95 101 112 125 136 139 145 148 142 145 154 157 153 157 167 169 172
189 213 264 308 323 318 254 300 352 344 331 340 18 7 310 358 26 37 48 55 55 57 67 65 48 75 98 98 99 109 134 143 142 146 150 150 153 151 146 146 157 155 155 174
225 246 284 319 322 343 87 308 336 343 341 353 350 297 331 22 42 52 55 56 60 64 61 49 46 81 90 87 84 82 93 99 103 116 137 142 137 136 138 139 134 132 132 153
180 234 292 334 1 20 317 328 346 353 360 23 29 32 38 48 53 56 55 55 61 65 53 41 50 79 79 68 67 80 88 89 87 85 102 114 115 115 124 132 128 127 122 106
191 221 312 342 358 350 353 350 354 1 3 32 51 47 45 48 51 50 53 54 60 72 62 47 44 66 75 57 68 80 79 79 82 80 80 98 113 118 113 118 127 133 129 130
331 320 343 358 7 6 6 8 7 12 18 35 58 62 59 56 53 49 47 50 56 66 64 51 43 49 60 52 62 80 79 73 77 82 77 74 82 105 119 133 135 135 141 162
314 323 343 1 3 360 7 18 27 31 34 44 62 63 61 56 51 51 50 48 53 60 61 50 44 44 43 47 61 70 72 71 71 74 80 73 65 64 85 96 151 164 183 183
295 317 317 321 339 357 13 16 23 36 39 41 57 63 59 54 50 52 52 51 53 53 55 48 46 43 37 43 59 67 64 59 63 70 71 72 72 52 46 55 52 42 26 300
302 323 325 321 347 5 16 17 23 37 47 47 46 55 57 54 50 53 53 50 52 51 49 45 43 38 30 37 52 61 64 58 59 65 71 71 67 64 36 30 41 38 24 1
336 348 359 358 356 1 12 21 34 42 43 48 49 51 55 54 52 49 45 40 45 49 46 42 40 31 20 33 50 55 57 54 56 63 67 71 74 70 61 33 3 358 356 345
358 4 355 351 10 14 20 33 42 39 38 36 41 47 49 51 47 39 35 35 41 43 36 33 32 18 12 31 45 45 43 46 52 58 59 61 64 68 64 44 358 331 335 337
343 9 27 27 20 17 24 30 36 32 33 36 38 38 39 47 45 36 31 33 40 32 20 21 18 2 7 30 40 38 34 32 31 36 41 44 46 56 37 348 310 310 314 321
5 7 7 5 4 8 13 16 22 24 31 35 35 37 42 46 42 33 24 22 29 23 11 12 3 357 9 23 32 30 25 22 23 24 20 13 356 325 295 286 286 292 295 299
358 344 340 335 344 354 360 5 12 18 24 25 31 41 42 39 29 14 11 16 22 18 9 3 3 5 11 14 15 13 16 13 12 7 353 351 340 319 307 298 295 297 305 313
9 12 8 3 360 358 356 355 359 8 13 28 36 30 23 17 9 1 8 20 18 3 349 352 0 6 3 1 3 11 10 3 355 349 342 338 342 336 324 310 303 299 300 310
7 8 10 6 8 7 359 357 3 7 8 23 30 25 16 4 1 3 10 6 343 315 319 341 351 351 351 352 1 2 357 347 336 330 329 323 313 309 307 304 304 305 305 306
355 359 1 359 356 356 355 354 360 354 350 4 11 354 341 338 344 352 0 344 334 339 342 345 348 337 339 349 358 358 355 350 336 318 313 308 306 303 301 301 302 303 302 302
345 349 347 346 348 348 349 348 348 344 344 350 351 345 341 338 342 340 321 293 309 331 339 330 324 328 337 347 350 350 346 342 333 323 313 307 302 298 296 298 297 298 298 296
333 335 335 335 334 330 336 340 342 340 336 333 329 321 312 307 309 311 314 315 316 326 331 319 321 327 338 347 339 337 333 327 320 315 308 302 297 293 292 295 295 297 297 296
332 334 331 329 335 342 338 333 333 331 321 314 313 307 301 308 313 303 287 310 322 324 322 318 324 328 338 340 327 318 313 309 304 298 295 294 291 290 292 293 294 295 294 294
326 327 330 335 335 325 318 322 328 327 323 317 314 313 308 298 291 300 305 306 313 320 318 320 324 327 334 319 310 302 297 292 289 290 289 292 292 292 291 291 290 292 293 292
320 318 314 311 306 306 310 314 312 312 313 313 314 313 309 303 294 295 300 301 303 312 315 310 310 315 311 304 300 296 293 298 303 301 293 290 288 289 289 290 291 289 288 287
319 318 319 320 319 314 308 303 301 304 306 303 304 306 307 307 304 303 302 304 305 305 302 301 299 299 299 297 296 293 292 290 288 286 285 283 281 281 284 284 285 286 287 286